Centennial Airport Denver US
ICAO: KAPA
IATA: APA
Category: Medium
Scheduled Services: No

Elevation: 5885 ft
TransAlt. 18000 ft.

Airport Communications:
DENVER APP/DEP:132.75
ATIS:120.3
CLNC DEL:128.6
GND:121.8
DENVER RDO:122.2
TWR:118.9
UNICOM:122.95

KAPA Zoom In..

If you have problems with the map follow the link
https://www.worldairports.se/pages/airport.php?
ICAO=KAPA

Runways:

(A) RW 10 length 4800 ft width 75 ft
---- / hdg 100

(B) RW 17L length 10001 ft width 100 ft
---- / hdg 167

(C) RW 17R length 7000 ft width 77 ft
---- / hdg 167

(D) RW 28 length 4800 ft width 75 ft
---- / hdg 280

(E) RW 35L length 7000 ft width 77 ft
---- / hdg 347

(F) RW 35R length 10001 ft width 100 ft
ILS 111.30 / hdg 347

Location; KAPA
Day. 22 / Time. 16.26 Zulu
* Altimeter: 29.79
* Temperature: -04° c. -24.8°f.
* Wind from: 160° Speed 04 kn.
Dewpoint: -07° c.
Visibility: 10 Statute Miles.
Clouds: Overcast 1300 ft.

KAPA 221626Z 16004KT 10SM OVC013 M04/M07 A2979 RMK AO2 T10441072 $


Wind From 160°
Speed 04 kn.

 
 
jpsmedia.com for Web Design worldairports.se 2019   terms of use